Location: Dötzum
(52.0808°N, 9.8063°E)
Time: 05:16:20
(UTC+00:00)

Cosmos 2322 - Pass Details

Date: 27 May 2022
Orbit: 840 x 855 km, 71.0° (Epoch: 26 June)

Event Time Altitude Azimuth Distance (km) Brightness Sun altitude
Exits shadow 00:07:17 14° 235° (SW) 2,189 5.4 -15.9°
Maximum altitude 00:12:01 52° 308° (NW) 1,063 4.4 -15.7°
Drops below altitude 10° 00:17:37 10° 25° (NNE) 2,499 7.5 -15.5°
Sets 00:20:10 0° 30° (NNE) 3,438 8.4 -15.4°
